sat.trackr.live / text

‹ back to catalog

STARLINK-5933

NORAD 55961 · 2023-037AZ

PAYLOAD ACTIVE UNKNOWN

§ Identity

Operator
Country
US
Launch date
2023-03-17
Launch site
AFWTR
Launch vehicle
Mass (kg)
RCS (m²)

Purposes: comms

External: N2YO · Heavens-Above · Gunter

§ Orbital elements

Epoch: 2026-05-25T02:50:21.532992Z

Period
96.11 min
Inclination
70.0006°
Eccentricity
0.0002891
Mean motion
14.98326663 rev/d
Perigee alt
570.1 km
Apogee alt
574.1 km
Semi-major
6,950.2 km
B*
1.3055e-4
RAAN
71.6674°
Arg perigee
269.9721°
Mean anomaly
90.1107°
Rev number
17,592

§ Raw data

STARLINK-59331 55961U 23037AZ  26145.11830478  .00001465  00000+0  13055-3 0  99932 55961  70.0006  71.6674 0002891 269.9721  90.1107 14.98326663175928

JSON: /api/v1/satellites/55961 · /tle

For live sub-satellite position, see the globe view (requires WebGL).

§ Visibility from observer

Set your observer location to see the next 7 days of passes ≥ 10°. The values pass through the URL so the page stays shareable.

No JS? Fill the form by hand. The geolocation button needs JavaScript.